| time (UTC) | temp F | wind direction | speed MPH | gust MPH | rain 1hr in | rain 24hr in | rain mn in | humidity % | barometer mb |
| 20260507051529 | 59 | 240 | 4.0 | 11.0 | 0.00 | 0.00 | 0.00 | 34 | 1021.0 |
| 20260507050049 | 59 | 226 | 6.0 | 10.0 | 0.00 | 0.00 | 0.00 | 34 | 1020.8 |
| 20260507044531 | 60 | 191 | 5.0 | 11.0 | 0.00 | 0.00 | 0.00 | 34 | 1020.7 |
| 20260507043010 | 60 | 205 | 7.0 | 12.0 | 0.00 | 0.00 | 0.00 | 33 | 1020.6 |
| 20260507041515 | 61 | 216 | 4.0 | 10.0 | 0.00 | 0.00 | 0.00 | 33 | 1020.4 |
| 20260507040024 | 61 | 270 | 7.0 | 12.0 | 0.00 | 0.00 | 0.00 | 32 | 1020.2 |
| 20260507034533 | 62 | 240 | 9.0 | 13.0 | 0.00 | 0.00 | 0.00 | 31 | 1020.0 |
| 20260507033031 | 62 | 235 | 6.0 | 14.0 | 0.00 | 0.00 | 0.00 | 31 | 1019.8 |
| 20260507031511 | 63 | 252 | 10.0 | 15.0 | 0.00 | 0.00 | 0.00 | 30 | 1019.6 |
| 20260507030018 | 64 | 299 | 9.0 | 17.0 | 0.00 | 0.00 | 0.00 | 30 | 1019.4 |
| 20260507024527 | 64 | 299 | 8.0 | 15.0 | 0.00 | 0.00 | 0.00 | 29 | 1019.0 |
| 20260507023027 | 65 | 283 | 10.0 | 19.0 | 0.00 | 0.00 | 0.00 | 28 | 1018.7 |
| 20260507021545 | 66 | 298 | 11.0 | 16.0 | 0.00 | 0.00 | 0.00 | 27 | 1018.3 |
| 20260507020022 | 67 | 257 | 1.0 | 12.0 | 0.00 | 0.00 | 0.00 | 26 | 1018.2 |
| 20260507014523 | 68 | 161 | 7.0 | 13.0 | 0.00 | 0.00 | 0.00 | 26 | 1018.2 |
| 20260507013023 | 68 | 90 | 12.0 | 18.0 | 0.00 | 0.00 | 0.00 | 26 | 1018.1 |
| 20260507011532 | 71 | 115 | 8.0 | 14.0 | 0.00 | 0.00 | 0.00 | 23 | 1018.1 |
| 20260507010040 | 72 | 335 | 3.0 | 13.0 | 0.00 | 0.00 | 0.00 | 21 | 1017.7 |
| 20260507004519 | 73 | 335 | 2.0 | 9.0 | 0.00 | 0.00 | 0.00 | 19 | 1017.7 |
| 20260507003022 | 73 | 304 | 3.0 | 15.0 | 0.00 | 0.00 | 0.00 | 20 | 1017.7 |
| 20260507001525 | 73 | 68 | 3.0 | 10.0 | 0.00 | 0.00 | 0.00 | 20 | 1017.8 |
| 20260507000033 | 72 | 234 | 2.0 | 11.0 | 0.00 | 0.00 | 0.00 | 21 | 1017.5 |
| 20260506234528 | 73 | 358 | 2.0 | 8.0 | 0.00 | 0.00 | 0.00 | 20 | 1017.4 |
| 20260506233018 | 73 | 267 | 5.0 | 12.0 | 0.00 | 0.00 | 0.00 | 19 | 1017.4 |
| 20260506231526 | 73 | 336 | 1.0 | 5.0 | 0.00 | 0.00 | 0.00 | 19 | 1017.5 |
| 20260506230026 | 71 | 302 | 4.0 | 12.0 | 0.00 | 0.00 | 0.00 | 20 | 1017.5 |
| 20260506224528 | 71 | 26 | 7.0 | 17.0 | 0.00 | 0.00 | 0.00 | 20 | 1017.7 |
| 20260506223028 | 71 | 143 | 1.0 | 9.0 | 0.00 | 0.00 | 0.00 | 20 | 1017.9 |
| 20260506221522 | 71 | 311 | 3.0 | 10.0 | 0.00 | 0.00 | 0.00 | 21 | 1018.3 |
| 20260506220030 | 70 | 250 | 5.0 | 9.0 | 0.00 | 0.00 | 0.00 | 21 | 1018.5 |
| 20260506214527 | 72 | 210 | 4.0 | 11.0 | 0.00 | 0.00 | 0.00 | 20 | 1018.8 |
| 20260506213030 | 70 | 356 | 7.0 | 14.0 | 0.00 | 0.00 | 0.00 | 21 | 1018.9 |
| 20260506211530 | 68 | 233 | 5.0 | 10.0 | 0.00 | 0.00 | 0.00 | 22 | 1019.1 |
| 20260506210030 | 69 | 136 | 4.0 | 12.0 | 0.00 | 0.00 | 0.00 | 22 | 1019.2 |
| 20260506204541 | 68 | 345 | 3.0 | 11.0 | 0.00 | 0.00 | 0.00 | 22 | 1019.3 |
| 20260506203029 | 68 | 342 | 11.0 | 17.0 | 0.00 | 0.00 | 0.00 | 22 | 1019.6 |
| 20260506201515 | 69 | 11 | 5.0 | 10.0 | 0.00 | 0.00 | 0.00 | 22 | 1019.8 |
| 20260506200023 | 68 | 274 | 4.0 | 11.0 | 0.00 | 0.00 | 0.00 | 23 | 1019.9 |
| 20260506194524 | 67 | 353 | 4.0 | 14.0 | 0.00 | 0.00 | 0.00 | 24 | 1019.9 |
| 20260506193027 | 66 | 355 | 5.0 | 14.0 | 0.00 | 0.00 | 0.00 | 24 | 1020.0 |
| 20260506191529 | 66 | 354 | 9.0 | 16.0 | 0.00 | 0.00 | 0.00 | 24 | 1020.1 |
| 20260506190013 | 66 | 332 | 5.0 | 10.0 | 0.00 | 0.00 | 0.00 | 23 | 1020.1 |
| 20260506184521 | 66 | 118 | 1.0 | 9.0 | 0.00 | 0.00 | 0.00 | 24 | 1020.3 |
| 20260506183022 | 64 | 237 | 4.0 | 8.0 | 0.00 | 0.00 | 0.00 | 24 | 1020.3 |
| 20260506181528 | 64 | 245 | 5.0 | 12.0 | 0.00 | 0.00 | 0.00 | 25 | 1020.4 |
| 20260506180028 | 63 | 348 | 2.0 | 10.0 | 0.00 | 0.00 | 0.00 | 26 | 1020.5 |
| 20260506174515 | 62 | 11 | 1.0 | 7.0 | 0.00 | 0.00 | 0.00 | 28 | 1020.6 |
| 20260506173022 | 62 | 309 | 5.0 | 15.0 | 0.00 | 0.00 | 0.00 | 28 | 1020.5 |
| 20260506171538 | 61 | 331 | 6.0 | 9.0 | 0.00 | 0.00 | 0.00 | 29 | 1020.4 |
| 20260506170027 | 60 | 323 | 1.0 | 6.0 | 0.00 | 0.00 | 0.00 | 31 | 1020.5 |
| 20260506164530 | 59 | 206 | 3.0 | 8.0 | 0.00 | 0.00 | 0.00 | 32 | 1020.3 |
| 20260506163020 | 59 | 346 | 2.0 | 7.0 | 0.00 | 0.00 | 0.00 | 30 | 1020.2 |
| 20260506161529 | 59 | 323 | 4.0 | 9.0 | 0.00 | 0.00 | 0.00 | 31 | 1020.1 |
| 20260506160040 | 58 | 338 | 5.0 | 9.0 | 0.00 | 0.00 | 0.00 | 32 | 1020.1 |
| 20260506154532 | 57 | 21 | 3.0 | 7.0 | 0.00 | 0.00 | 0.00 | 34 | 1019.9 |
| 20260506153030 | 57 | 26 | 0.0 | 4.0 | 0.00 | 0.00 | 0.00 | 37 | 1019.9 |
| 20260506151530 | 56 | 335 | 3.0 | 7.0 | 0.00 | 0.00 | 0.00 | 36 | 1020.1 |
| 20260506150031 | 56 | 53 | 0.0 | 2.0 | 0.00 | 0.00 | 0.00 | 38 | 1019.9 |
| 20260506144525 | 55 | 15 | 2.0 | 4.0 | 0.00 | 0.00 | 0.00 | 38 | 1019.9 |
| 20260506143041 | 54 | 307 | 0.0 | 1.0 | 0.00 | 0.00 | 0.00 | 40 | 1019.8 |
| 20260506141529 | 52 | 233 | 0.0 | 2.0 | 0.00 | 0.00 | 0.00 | 42 | 1019.8 |
| 20260506140032 | 49 | 123 | 1.0 | 3.0 | 0.00 | 0.00 | 0.00 | 47 | 1019.6 |
| 20260506134527 | 46 | 240 | 3.0 | 4.0 | 0.00 | 0.00 | 0.00 | 50 | 1019.5 |
| 20260506133028 | 45 | 243 | 3.0 | 5.0 | 0.00 | 0.00 | 0.00 | 51 | 1019.2 |
| 20260506131530 | 46 | 225 | 4.0 | 5.0 | 0.00 | 0.00 | 0.00 | 50 | 1019.2 |
| 20260506130020 | 45 | 234 | 1.0 | 3.0 | 0.00 | 0.00 | 0.00 | 53 | 1018.9 |
| 20260506124523 | 43 | 253 | 2.0 | 5.0 | 0.00 | 0.00 | 0.00 | 55 | 1018.8 |
| 20260506123026 | 42 | 240 | 4.0 | 7.0 | 0.00 | 0.00 | 0.00 | 56 | 1018.5 |
| 20260506121527 | 42 | 256 | 3.0 | 6.0 | 0.00 | 0.00 | 0.00 | 57 | 1018.4 |
| 20260506120014 | 42 | 219 | 1.0 | 5.0 | 0.00 | 0.00 | 0.00 | 56 | 1018.4 |
| 20260506114530 | 44 | 165 | 2.0 | 3.0 | 0.00 | 0.00 | 0.00 | 54 | 1018.4 |
| 20260506113023 | 45 | 244 | 5.0 | 7.0 | 0.00 | 0.00 | 0.00 | 52 | 1018.4 |
| 20260506111525 | 44 | 278 | 3.0 | 9.0 | 0.00 | 0.00 | 0.00 | 53 | 1018.3 |
| 20260506110034 | 44 | 210 | 5.0 | 10.0 | 0.00 | 0.00 | 0.00 | 54 | 1018.1 |
| 20260506104516 | 43 | 252 | 4.0 | 9.0 | 0.00 | 0.00 | 0.00 | 55 | 1018.1 |
| 20260506103020 | 43 | 204 | 3.0 | 7.0 | 0.00 | 0.00 | 0.00 | 54 | 1017.9 |
| 20260506101543 | 44 | 193 | 5.0 | 8.0 | 0.00 | 0.00 | 0.00 | 53 | 1017.9 |
| 20260506100007 | 45 | 222 | 3.0 | 8.0 | 0.00 | 0.00 | 0.00 | 52 | 1018.1 |
| 20260506094516 | 46 | 214 | 4.0 | 8.0 | 0.00 | 0.00 | 0.00 | 50 | 1018.0 |
| 20260506093019 | 45 | 240 | 6.0 | 9.0 | 0.00 | 0.00 | 0.00 | 51 | 1018.0 |
| 20260506091524 | 45 | 248 | 7.0 | 10.0 | 0.00 | 0.00 | 0.00 | 51 | 1017.8 |
| 20260506090025 | 45 | 256 | 6.0 | 9.0 | 0.00 | 0.00 | 0.00 | 50 | 1017.6 |
| 20260506084517 | 46 | 232 | 4.0 | 8.0 | 0.00 | 0.00 | 0.00 | 49 | 1017.5 |
| 20260506083015 | 46 | 205 | 4.0 | 7.0 | 0.00 | 0.00 | 0.00 | 49 | 1017.5 |
| 20260506081519 | 47 | 214 | 3.0 | 7.0 | 0.00 | 0.00 | 0.00 | 47 | 1017.7 |
| 20260506073010 | 48 | 252 | 5.0 | 7.0 | 0.00 | 0.00 | 0.00 | 46 | 1017.7 |
| 20260506071518 | 48 | 255 | 4.0 | 6.0 | 0.00 | 0.00 | 0.00 | 46 | 1017.7 |
| 20260506061531 | 48 | 282 | 2.0 | 6.0 | 0.00 | 0.00 | 0.00 | 45 | 1017.4 |